| time (UTC) | temp F | wind direction | speed MPH | gust MPH | rain 1hr in | rain 24hr in | rain mn in | humidity % | barometer mb |
| 20260507153603 | 61 | 294 | 2.0 | 7.0 | 0.00 | 0.00 | 0.00 | 22 | 1012.9 |
| 20260507152724 | 59 | 316 | 2.0 | 9.0 | 0.00 | 0.00 | 0.00 | 24 | 1012.7 |
| 20260507151803 | 60 | 326 | 7.0 | 11.0 | 0.00 | 0.00 | 0.00 | 24 | 1012.6 |
| 20260507150926 | 60 | 338 | 5.0 | 9.0 | 0.00 | 0.00 | 0.00 | 24 | 1012.5 |
| 20260507150004 | 61 | 337 | 4.0 | 6.0 | 0.00 | 0.00 | 0.00 | 25 | 1012.4 |
| 20260507145405 | 62 | 358 | 2.0 | 7.0 | 0.00 | 0.00 | 0.00 | 24 | 1012.4 |
| 20260507144503 | 61 | 349 | 4.0 | 6.0 | 0.00 | 0.00 | 0.00 | 24 | 1012.5 |
| 20260507143603 | 61 | 31 | 2.0 | 7.0 | 0.00 | 0.00 | 0.00 | 25 | 1012.4 |
| 20260507142704 | 60 | 13 | 4.0 | 7.0 | 0.00 | 0.00 | 0.00 | 24 | 1012.2 |
| 20260507141803 | 62 | 348 | 2.0 | 4.0 | 0.00 | 0.00 | 0.00 | 25 | 1012.3 |
| 20260507140903 | 60 | 353 | 2.0 | 4.0 | 0.00 | 0.00 | 0.00 | 25 | 1012.3 |
| 20260507140025 | 58 | 348 | 0.0 | 4.0 | 0.00 | 0.00 | 0.00 | 25 | 1012.3 |
| 20260507135403 | 58 | 6 | 2.0 | 4.0 | 0.00 | 0.00 | 0.00 | 26 | 1012.2 |
| 20260507134505 | 57 | 327 | 2.0 | 7.0 | 0.00 | 0.00 | 0.00 | 27 | 1012.3 |
| 20260507133603 | 56 | 303 | 4.0 | 9.0 | 0.00 | 0.00 | 0.00 | 28 | 1012.1 |
| 20260507132705 | 58 | 283 | 2.0 | 9.0 | 0.00 | 0.00 | 0.00 | 29 | 1012.2 |
| 20260507131803 | 58 | 302 | 2.0 | 8.0 | 0.00 | 0.00 | 0.00 | 26 | 1012.1 |
| 20260507130903 | 60 | 330 | 3.0 | 8.0 | 0.00 | 0.00 | 0.00 | 26 | 1012.1 |
| 20260507130005 | 62 | 70 | 2.0 | 7.0 | 0.00 | 0.00 | 0.00 | 25 | 1012.0 |
| 20260507125403 | 58 | 51 | 4.0 | 7.0 | 0.00 | 0.00 | 0.00 | 27 | 1012.3 |
| 20260507124503 | 60 | 19 | 3.0 | 7.0 | 0.00 | 0.00 | 0.00 | 27 | 1011.9 |
| 20260507123603 | 58 | 338 | 2.0 | 7.0 | 0.00 | 0.00 | 0.00 | 26 | 1012.0 |
| 20260507122705 | 57 | 345 | 3.0 | 7.0 | 0.00 | 0.00 | 0.00 | 30 | 1012.0 |
| 20260507121803 | 57 | 15 | 2.0 | 9.0 | 0.00 | 0.00 | 0.00 | 28 | 1012.0 |
| 20260507120903 | 60 | 329 | 2.0 | 7.0 | 0.00 | 0.00 | 0.00 | 25 | 1011.9 |
| 20260507120005 | 60 | 321 | 4.0 | 11.0 | 0.00 | 0.00 | 0.00 | 27 | 1011.9 |
| 20260507115403 | 60 | 321 | 4.0 | 9.0 | 0.00 | 0.00 | 0.00 | 26 | 1011.7 |
| 20260507114503 | 58 | 343 | 4.0 | 7.0 | 0.00 | 0.00 | 0.00 | 26 | 1011.9 |
| 20260507113605 | 56 | 293 | 3.0 | 9.0 | 0.00 | 0.00 | 0.00 | 27 | 1012.0 |
| 20260507112703 | 59 | 124 | 1.0 | 4.0 | 0.00 | 0.00 | 0.00 | 27 | 1011.7 |
| 20260507111805 | 56 | 347 | 1.0 | 9.0 | 0.00 | 0.00 | 0.00 | 27 | 1011.8 |
| 20260507110903 | 55 | 354 | 2.0 | 9.0 | 0.00 | 0.00 | 0.00 | 28 | 1011.8 |
| 20260507110005 | 58 | 335 | 3.0 | 8.0 | 0.00 | 0.00 | 0.00 | 26 | 1011.7 |
| 20260507105403 | 57 | 356 | 4.0 | 8.0 | 0.00 | 0.00 | 0.00 | 26 | 1011.6 |
| 20260507104504 | 58 | 302 | 2.0 | 4.0 | 0.00 | 0.00 | 0.00 | 28 | 1011.6 |
| 20260507103603 | 57 | 281 | 1.0 | 4.0 | 0.00 | 0.00 | 0.00 | 29 | 1011.6 |
| 20260507102705 | 56 | 318 | 2.0 | 18.0 | 0.00 | 0.00 | 0.00 | 31 | 1011.5 |
| 20260507101805 | 54 | 338 | 8.0 | 18.0 | 0.00 | 0.00 | 0.00 | 33 | 1011.5 |
| 20260507100903 | 55 | 74 | 1.0 | 6.0 | 0.00 | 0.00 | 0.00 | 32 | 1011.3 |
| 20260507100004 | 56 | 346 | 1.0 | 7.0 | 0.00 | 0.00 | 0.00 | 33 | 1011.6 |
| 20260507095403 | 56 | 356 | 3.0 | 7.0 | 0.00 | 0.00 | 0.00 | 34 | 1011.4 |
| 20260507094504 | 58 | 152 | 1.0 | 4.0 | 0.00 | 0.00 | 0.00 | 34 | 1011.3 |
| 20260507093603 | 55 | 158 | 2.0 | 7.0 | 0.00 | 0.00 | 0.00 | 36 | 1011.3 |
| 20260507092703 | 54 | 152 | 4.0 | 4.0 | 0.00 | 0.00 | 0.00 | 38 | 1011.3 |
| 20260507091805 | 55 | 28 | 2.0 | 6.0 | 0.00 | 0.00 | 0.00 | 42 | 1011.2 |
| 20260507090905 | 53 | 19 | 2.0 | 4.0 | 0.00 | 0.00 | 0.00 | 43 | 1011.3 |
| 20260507090006 | 54 | 53 | 1.0 | 6.0 | 0.00 | 0.00 | 0.00 | 44 | 1011.2 |
| 20260507085403 | 55 | 83 | 2.0 | 4.0 | 0.00 | 0.00 | 0.00 | 44 | 1011.1 |
| 20260507084503 | 53 | 85 | 2.0 | 7.0 | 0.00 | 0.00 | 0.00 | 47 | 1011.2 |
| 20260507083624 | 52 | 99 | 5.0 | 7.0 | 0.00 | 0.00 | 0.00 | 49 | 1011.2 |
| 20260507082703 | 51 | 113 | 2.0 | 6.0 | 0.00 | 0.00 | 0.00 | 50 | 1011.2 |
| 20260507081824 | 52 | 114 | 1.0 | 6.0 | 0.00 | 0.00 | 0.00 | 48 | 1011.1 |
| 20260507080907 | 50 | 95 | 4.0 | 6.0 | 0.00 | 0.00 | 0.00 | 50 | 1011.0 |
| 20260507080025 | 51 | 94 | 2.0 | 4.0 | 0.00 | 0.00 | 0.00 | 50 | 1011.0 |
| 20260507075403 | 51 | 20 | 2.0 | 4.0 | 0.00 | 0.00 | 0.00 | 49 | 1010.9 |
| 20260507074505 | 50 | 42 | 2.0 | 4.0 | 0.00 | 0.00 | 0.00 | 49 | 1010.7 |
| 20260507073624 | 50 | 85 | 2.0 | 4.0 | 0.00 | 0.00 | 0.00 | 49 | 1011.1 |
| 20260507072703 | 50 | 91 | 1.0 | 4.0 | 0.00 | 0.00 | 0.00 | 50 | 1010.7 |
| 20260507071803 | 48 | 74 | 2.0 | 4.0 | 0.00 | 0.00 | 0.00 | 52 | 1010.7 |
| 20260507070905 | 48 | 73 | 1.0 | 4.0 | 0.00 | 0.00 | 0.00 | 52 | 1010.9 |
| 20260507070006 | 48 | 90 | 2.0 | 4.0 | 0.00 | 0.00 | 0.00 | 54 | 1010.7 |
| 20260507065403 | 48 | 90 | 2.0 | 4.0 | 0.00 | 0.00 | 0.00 | 56 | 1010.5 |
| 20260507064507 | 47 | 88 | 3.0 | 4.0 | 0.00 | 0.00 | 0.00 | 56 | 1010.7 |
| 20260507063603 | 46 | 88 | 1.0 | 4.0 | 0.00 | 0.00 | 0.00 | 58 | 1010.7 |
| 20260507062703 | 45 | 90 | 2.0 | 4.0 | 0.00 | 0.00 | 0.00 | 61 | 1010.5 |
| 20260507061805 | 43 | 90 | 2.0 | 4.0 | 0.00 | 0.00 | 0.00 | 64 | 1010.4 |
| 20260507060926 | 43 | 90 | 2.0 | 4.0 | 0.00 | 0.00 | 0.00 | 65 | 1010.5 |
| 20260507060005 | 43 | 90 | 2.0 | 4.0 | 0.00 | 0.00 | 0.00 | 64 | 1010.5 |
| 20260507055403 | 43 | 90 | 0.0 | 4.0 | 0.00 | 0.00 | 0.00 | 64 | 1010.7 |
| 20260507054524 | 44 | 102 | 1.0 | 4.0 | 0.00 | 0.00 | 0.00 | 63 | 1010.4 |
| 20260507053603 | 41 | 102 | 0.0 | 4.0 | 0.00 | 0.00 | 0.00 | 68 | 1010.4 |
| 20260507052705 | 41 | 94 | 1.0 | 4.0 | 0.00 | 0.00 | 0.00 | 67 | 1010.3 |
| 20260507051804 | 41 | 100 | 2.0 | 4.0 | 0.00 | 0.00 | 0.00 | 67 | 1010.3 |
| 20260507050903 | 41 | 110 | 2.0 | 2.0 | 0.00 | 0.00 | 0.00 | 67 | 1010.2 |
| 20260507050003 | 39 | 112 | 1.0 | 4.0 | 0.00 | 0.00 | 0.00 | 70 | 1010.3 |
| 20260507045405 | 39 | 115 | 1.0 | 4.0 | 0.00 | 0.00 | 0.00 | 70 | 1010.2 |
| 20260507044503 | 39 | 122 | 2.0 | 4.0 | 0.00 | 0.00 | 0.00 | 71 | 1010.2 |
| 20260507043605 | 39 | 112 | 1.0 | 2.0 | 0.00 | 0.00 | 0.00 | 72 | 1010.1 |
| 20260507042703 | 39 | 112 | 0.0 | 2.0 | 0.00 | 0.00 | 0.00 | 72 | 1009.9 |
| 20260507041803 | 39 | 135 | 0.0 | 2.0 | 0.00 | 0.00 | 0.00 | 70 | 1010.0 |
| 20260507040903 | 39 | 132 | 1.0 | 2.0 | 0.00 | 0.00 | 0.00 | 70 | 1009.8 |
| 20260507040004 | 39 | 75 | 1.0 | 2.0 | 0.00 | 0.00 | 0.00 | 70 | 1009.7 |
| 20260507035403 | 39 | 45 | 0.0 | 2.0 | 0.00 | 0.00 | 0.00 | 70 | 1009.8 |
| 20260507034503 | 39 | 0 | 0.0 | 0.0 | 0.00 | 0.00 | 0.00 | 71 | 1009.7 |
| 20260507033603 | 38 | 0 | 0.0 | 0.0 | 0.00 | 0.00 | 0.00 | 71 | 1009.7 |
| 20260507032705 | 38 | 45 | 0.0 | 2.0 | 0.00 | 0.00 | 0.00 | 72 | 1009.7 |
| 20260507031803 | 37 | 0 | 0.0 | 0.0 | 0.00 | 0.00 | 0.00 | 72 | 1009.6 |
| 20260507030924 | 37 | 0 | 0.0 | 0.0 | 0.00 | 0.00 | 0.00 | 71 | 1009.7 |
| 20260507030005 | 38 | 0 | 0.0 | 0.0 | 0.00 | 0.00 | 0.00 | 70 | 1009.6 |
| 20260507025404 | 38 | 45 | 0.0 | 2.0 | 0.00 | 0.00 | 0.00 | 71 | 1009.6 |
| 20260507024503 | 37 | 0 | 0.0 | 0.0 | 0.00 | 0.00 | 0.00 | 71 | 1009.7 |
| 20260507023603 | 38 | 0 | 0.0 | 0.0 | 0.00 | 0.00 | 0.00 | 70 | 1009.6 |
| 20260507022703 | 38 | 0 | 0.0 | 0.0 | 0.00 | 0.00 | 0.00 | 70 | 1009.6 |
| 20260507021803 | 37 | 0 | 0.0 | 0.0 | 0.00 | 0.00 | 0.00 | 70 | 1009.6 |
| 20260507020905 | 37 | 0 | 0.0 | 0.0 | 0.00 | 0.00 | 0.00 | 70 | 1009.6 |
| 20260507020003 | 37 | 45 | 0.0 | 2.0 | 0.00 | 0.00 | 0.00 | 69 | 1009.4 |
| 20260507015404 | 37 | 50 | 0.0 | 4.0 | 0.00 | 0.00 | 0.00 | 69 | 1009.6 |
| 20260507014503 | 37 | 67 | 1.0 | 2.0 | 0.00 | 0.00 | 0.00 | 70 | 1009.4 |
| 20260507013603 | 37 | 90 | 0.0 | 2.0 | 0.00 | 0.00 | 0.00 | 71 | 1009.3 |
| 20260507012703 | 37 | 80 | 0.0 | 2.0 | 0.00 | 0.00 | 0.00 | 70 | 1009.5 |
| 20260507011804 | 37 | 90 | 1.0 | 2.0 | 0.00 | 0.00 | 0.00 | 68 | 1009.5 |
| 20260507010903 | 37 | 90 | 0.0 | 2.0 | 0.00 | 0.00 | 0.00 | 68 | 1009.3 |
| 20260507010003 | 37 | 90 | 2.0 | 2.0 | 0.00 | 0.00 | 0.00 | 68 | 1009.5 |
| 20260507005405 | 37 | 90 | 0.0 | 2.0 | 0.00 | 0.00 | 0.00 | 69 | 1009.4 |
| 20260507004503 | 37 | 90 | 0.0 | 2.0 | 0.00 | 0.00 | 0.00 | 70 | 1009.2 |
| 20260507003603 | 37 | 90 | 0.0 | 2.0 | 0.00 | 0.00 | 0.00 | 70 | 1009.2 |
| 20260507002703 | 37 | 90 | 1.0 | 2.0 | 0.00 | 0.00 | 0.00 | 69 | 1009.1 |
| 20260507001803 | 37 | 90 | 2.0 | 2.0 | 0.00 | 0.00 | 0.00 | 70 | 1008.9 |
| 20260507000903 | 37 | 0 | 0.0 | 0.0 | 0.00 | 0.00 | 0.00 | 69 | 1009.2 |
| 20260507000006 | 37 | 0 | 0.0 | 0.0 | 0.00 | 0.00 | 0.00 | 68 | 1009.2 |
| 20260506235403 | 37 | 90 | 0.0 | 2.0 | 0.00 | 0.00 | 0.00 | 66 | 1009.0 |
| 20260506234503 | 37 | 93 | 1.0 | 4.0 | 0.00 | 0.00 | 0.00 | 63 | 1008.8 |
| 20260506233603 | 38 | 92 | 2.0 | 4.0 | 0.00 | 0.00 | 0.00 | 61 | 1008.8 |
| 20260506232703 | 39 | 103 | 1.0 | 4.0 | 0.00 | 0.00 | 0.00 | 58 | 1008.7 |
| 20260506231803 | 41 | 132 | 2.0 | 4.0 | 0.00 | 0.00 | 0.00 | 54 | 1008.8 |
| 20260506230905 | 42 | 161 | 2.0 | 7.0 | 0.00 | 0.00 | 0.00 | 52 | 1008.8 |
| 20260506230024 | 42 | 166 | 4.0 | 7.0 | 0.00 | 0.00 | 0.00 | 51 | 1008.5 |
| 20260506225405 | 42 | 181 | 3.0 | 7.0 | 0.00 | 0.00 | 0.00 | 51 | 1008.5 |
| 20260506224503 | 42 | 182 | 4.0 | 7.0 | 0.00 | 0.00 | 0.00 | 51 | 1008.8 |
| 20260506223605 | 43 | 180 | 4.0 | 11.0 | 0.00 | 0.00 | 0.00 | 50 | 1008.4 |
| 20260506222703 | 43 | 184 | 5.0 | 14.0 | 0.00 | 0.00 | 0.00 | 49 | 1008.5 |
| 20260506221803 | 43 | 195 | 5.0 | 14.0 | 0.00 | 0.00 | 0.00 | 48 | 1008.5 |
| 20260506220903 | 43 | 200 | 4.0 | 11.0 | 0.00 | 0.00 | 0.00 | 49 | 1008.6 |
| 20260506220004 | 44 | 181 | 5.0 | 11.0 | 0.00 | 0.00 | 0.00 | 48 | 1008.4 |
| 20260506215403 | 44 | 174 | 4.0 | 11.0 | 0.00 | 0.00 | 0.00 | 48 | 1008.4 |
| 20260506214505 | 44 | 186 | 3.0 | 9.0 | 0.00 | 0.00 | 0.00 | 47 | 1008.4 |
| 20260506213603 | 44 | 161 | 4.0 | 8.0 | 0.00 | 0.00 | 0.00 | 47 | 1008.4 |
| 20260506212724 | 45 | 179 | 5.0 | 11.0 | 0.00 | 0.00 | 0.00 | 46 | 1008.4 |
| 20260506211805 | 45 | 162 | 4.0 | 9.0 | 0.00 | 0.00 | 0.00 | 45 | 1008.3 |
| 20260506210903 | 46 | 177 | 5.0 | 8.0 | 0.00 | 0.00 | 0.00 | 44 | 1008.1 |
| 20260506210003 | 46 | 195 | 4.0 | 11.0 | 0.00 | 0.00 | 0.00 | 44 | 1008.1 |
| 20260506205404 | 46 | 189 | 5.0 | 15.0 | 0.00 | 0.00 | 0.00 | 43 | 1008.1 |
| 20260506204503 | 47 | 189 | 6.0 | 13.0 | 0.00 | 0.00 | 0.00 | 44 | 1007.9 |
| 20260506203603 | 47 | 194 | 6.0 | 9.0 | 0.00 | 0.00 | 0.00 | 43 | 1007.9 |
| 20260506202705 | 47 | 156 | 4.0 | 11.0 | 0.00 | 0.00 | 0.00 | 43 | 1007.9 |
| 20260506201803 | 48 | 178 | 3.0 | 8.0 | 0.00 | 0.00 | 0.00 | 41 | 1007.7 |
| 20260506200903 | 49 | 191 | 6.0 | 11.0 | 0.00 | 0.00 | 0.00 | 39 | 1007.6 |
| 20260506200003 | 49 | 195 | 8.0 | 11.0 | 0.00 | 0.00 | 0.00 | 37 | 1007.4 |
| 20260506195403 | 49 | 212 | 5.0 | 9.0 | 0.00 | 0.00 | 0.00 | 39 | 1007.6 |
| 20260506194505 | 49 | 175 | 5.0 | 9.0 | 0.00 | 0.00 | 0.00 | 39 | 1007.6 |
| 20260506193603 | 48 | 159 | 2.0 | 6.0 | 0.00 | 0.00 | 0.00 | 40 | 1007.8 |
| 20260506192724 | 49 | 164 | 2.0 | 4.0 | 0.00 | 0.00 | 0.00 | 39 | 1007.6 |
| 20260506191803 | 49 | 157 | 2.0 | 4.0 | 0.00 | 0.00 | 0.00 | 38 | 1007.5 |
| 20260506190903 | 49 | 135 | 1.0 | 4.0 | 0.00 | 0.00 | 0.00 | 38 | 1007.4 |
| 20260506190003 | 50 | 136 | 2.0 | 4.0 | 0.00 | 0.00 | 0.00 | 37 | 1007.3 |
| 20260506185404 | 50 | 135 | 2.0 | 4.0 | 0.00 | 0.00 | 0.00 | 37 | 1007.4 |
| 20260506184524 | 50 | 135 | 1.0 | 2.0 | 0.00 | 0.00 | 0.00 | 37 | 1007.2 |
| 20260506183603 | 51 | 146 | 2.0 | 4.0 | 0.00 | 0.00 | 0.00 | 35 | 1007.6 |
| 20260506182703 | 52 | 155 | 2.0 | 2.0 | 0.00 | 0.00 | 0.00 | 34 | 1007.2 |
| 20260506181803 | 52 | 169 | 1.0 | 4.0 | 0.00 | 0.00 | 0.00 | 33 | 1007.0 |
| 20260506180903 | 53 | 195 | 2.0 | 4.0 | 0.00 | 0.00 | 0.00 | 32 | 1007.2 |
| 20260506180004 | 52 | 166 | 3.0 | 4.0 | 0.00 | 0.00 | 0.00 | 33 | 1007.1 |
| 20260506175406 | 52 | 160 | 0.0 | 4.0 | 0.00 | 0.00 | 0.00 | 33 | 1007.1 |
| 20260506174524 | 52 | 162 | 3.0 | 4.0 | 0.00 | 0.00 | 0.00 | 32 | 1007.1 |
| 20260506173603 | 53 | 145 | 1.0 | 4.0 | 0.00 | 0.00 | 0.00 | 33 | 1007.1 |
| 20260506172703 | 53 | 134 | 2.0 | 4.0 | 0.00 | 0.00 | 0.00 | 33 | 1007.3 |
| 20260506171805 | 53 | 163 | 2.0 | 4.0 | 0.00 | 0.00 | 0.00 | 32 | 1007.3 |
| 20260506170906 | 53 | 158 | 2.0 | 6.0 | 0.00 | 0.00 | 0.00 | 33 | 1007.2 |
| 20260506170003 | 53 | 152 | 2.0 | 6.0 | 0.00 | 0.00 | 0.00 | 33 | 1007.2 |
| 20260506165403 | 53 | 180 | 2.0 | 4.0 | 0.00 | 0.00 | 0.00 | 32 | 1007.4 |
| 20260506164503 | 53 | 165 | 3.0 | 8.0 | 0.00 | 0.00 | 0.00 | 32 | 1007.1 |
| 20260506163603 | 53 | 205 | 4.0 | 7.0 | 0.00 | 0.00 | 0.00 | 32 | 1007.0 |
| 20260506162724 | 53 | 222 | 3.0 | 4.0 | 0.00 | 0.00 | 0.00 | 32 | 1007.5 |
| 20260506161803 | 53 | 292 | 2.0 | 7.0 | 0.00 | 0.00 | 0.00 | 31 | 1007.4 |
| 20260506160903 | 53 | 226 | 2.0 | 11.0 | 0.00 | 0.00 | 0.00 | 30 | 1007.2 |
| 20260506160004 | 53 | 220 | 4.0 | 15.0 | 0.00 | 0.00 | 0.00 | 31 | 1007.3 |
| 20260506155403 | 54 | 203 | 8.0 | 15.0 | 0.00 | 0.00 | 0.00 | 30 | 1007.2 |
| 20260506154503 | 53 | 193 | 6.0 | 11.0 | 0.00 | 0.00 | 0.00 | 31 | 1007.5 |